Regional Weather Roundup
Issued by NWS Charleston, SC

Current Version | Previous Version | Graphics & Text | Print | Product List | Glossary On
Versions: 1 2 3 4 5 6 7 8 9 10 11 12 13 14 15 16 17 18 19 20 21 22 23 24 25 26 27 28 29 30 31 32 33 34 35 36 37 38 39 40 41 42 43 44 45 46 47 48 49 50
000
ASUS42 KCHS 020426
RWRCHS

REGIONAL WEATHER ROUNDUP
NATIONAL WEATHER SERVICE CHARLESTON SC
1100 PM EST SUN MAR 01 2015

NOTE: "FAIR" INDICATES FEW OR NO CLOUDS BELOW 12,000 FEET WITH NO
SIGNIFICANT WEATHER AND/OR OBSTRUCTIONS TO VISIBILITY.

NOT ALL STATIONS ARE QUALITY CONTROLLED BY THE NATIONAL
WEATHER SERVICE. USE DATA WITH CAUTION...ESPECIALLY
DEWPOINT OBSERVATIONS.

SCZ027-030-031-034>040-042>050-020500-
...SOUTHEAST SOUTH CAROLINA...

CITY           SKY/WX    TMP DP  RH WIND       PRES   REMARKS
N CHARLESTON   FOG       43  42  97 N5        30.37F VSB 1/4
WATERFRONT PRK   N/A     43 N/A N/A NW6         N/A
MOUNT PLEASANT CLOUDY    45  43  93 CALM      30.35F FOG
PINOPOLIS        N/A     43  43 100 VRB2      30.29F
MONCKS CORNER  CLOUDY    43  41  93 CALM      30.35F FOG
SUMMERVILLE    CLOUDY    43  43 100 CALM      30.37F FOG
BEAUFORT MCAS  FOG       45  44  97 NW3       30.37F VSB 1
BEAUFORT ARPT  CLOUDY    45  45 100 CALM      30.36F FOG
HILTON HEAD IS CLOUDY    46  46 100 NW5       30.38F FOG
WALTERBORO     FOG       45  45 100 CALM      30.38F VSB 1/2
ALLENDALE      FOG       45  45 100 CALM      30.37F VSB 1

...SOUTHERN MIDLANDS AND PEE DEE...

CITY           SKY/WX    TMP DP  RH WIND       PRES   REMARKS
GEORGETOWN     NOT AVBL
KINGSTREE      NOT AVBL
ORANGEBURG     CLOUDY    43  40  89 W3        30.37S FOG
BARNWELL       CLOUDY    45  45 100 CALM      30.37F FOG
AIKEN          CLOUDY    43  43 100 NW3       30.40S FOG
MANNING        CLOUDY   N/A N/A N/A CALM      30.37R HAZE
COLUMBIA       CLOUDY    42  40  92 W6        30.37F
SUMTER         CLOUDY    41  39  93 SW3       30.34F
FLORENCE       CLOUDY    41  39  93 SW3       30.35F
MYRTLE BEACH   CLOUDY    43  39  87 CALM      30.37F VSB 3/4
N MYRTLE BEACH CLOUDY    42  41  96 CALM      30.34F FOG

$$

GAZ063-065-086>088-099>101-113>116-118-119-134>141-150-020500-
...SOUTHEAST GEORGIA...

CITY           SKY/WX    TMP DP  RH WIND       PRES   REMARKS
SAVANNAH ARPT  FOG       46  45  93 W5        30.38F VSB 1/2
HUNTER AAF     CLOUDY    46  46 100 NW2       30.35F FOG
FORT STEWART   CLOUDY    48  46  93 CALM      30.36F FOG
STATESBORO     FOG       45  45 100 CALM      30.38F VSB 3/4
SYLVANIA       FOG       45  45 100 CALM      30.38F VSB 1
CLAXTON        CLOUDY    46  46 100 CALM      30.39F FOG

...CSRA...CENTRAL AND FAR SOUTHEAST GEORGIA...

CITY           SKY/WX    TMP DP  RH WIND       PRES   REMARKS
THOMSON        CLOUDY    44  44 100 CALM      30.43S VSB 1/2
AUGUSTA-BUSH   CLOUDY    43  42  97 S3        30.37F FOG
AUGUSTA-DANIEL CLOUDY    44  42  93 NW3       30.39S FOG
SWAINSBORO     CLOUDY    46  46 100 CALM      30.39S FOG
VIDALIA        CLOUDY    46  46 100 CALM      30.37F FOG
EASTMAN        FOG       46  46 100 NW3       30.42R VSB 1
HAZLEHURST     CLOUDY    49  49 100 CALM      30.37F FOG
ALMA           CLOUDY    50  49  96 CALM      30.38F FOG
WAYCROSS       CLOUDY    55  55  99 CALM      30.38F FOG
JESUP          CLOUDY    52  52 100 CALM      30.38F FOG
BAXLEY         FOG       50  50 100 CALM      30.37F VSB 1/2
BRUNSWICK      CLOUDY    54  52  94 CALM      30.38F VSB 1/2
SAINT SIMONS   FOG       52  51  97 N5        30.38F VSB 1/2

$$

SCZ027-028-034-036>038-045-046-048>050-GAZ119-141-020500-
...LAKE AND SUPPLEMENTAL COASTAL OBSERVATIONS...

STATION/POSITION TIME  TEMP    WIND        PRES    WAVE   SWELL
                       AIR SEA DIR/SP/G            HT/PER HT/PER/DIR
                 (UTC) (F)     (DEG/KT/KT) (MB)    (FT/S) (FT/S/D)
UPR LAKE MARION  NOT AVBL
WINYAH BAY       0345   42     310/  3     1027.0F
LAKE MURRAY      0400   42     220/  5/  8 1027.4F
ACE BASIN NERRS  NOT AVBL
FORT PULASKI     0300   47 49   10/  4/  5 1029.2F
SAPELO ISLAND    0400   51     340/  3     1029.0S

$$

ANZ835-935-AMZ111-154-330-350-352-354-370-450-454-472-020500-
...C-MAN AND BUOY OBSERVATIONS...

STATION/POSITION TIME  TEMP    WIND        PRES    WAVE   SWELL
                       AIR SEA DIR/SP/G            HT/PER HT/PER/DIR
                 (UTC) (F)     (DEG/KT/KT) (MB)    (FT/S) (FT/S/D)
BUOY 41004       0350   54 68  360/ 10/ 12 1027.9F   6/ 8   5/ 8
BUOY 41008       0350   50 53  360/  8/ 10 1028.7F   4/ 9   3/100/ 9
FOLLY BEACH CMAN 0400   44     320/  2/  4 1028.9F
CAPERS NEARSHORE NOT AVBL
FRIPP NEARSHORE  0300   46     360/ 10/ 12 1027.9F


STATION/POSITION TIME  TEMP    WIND        PRES    WAVE   SWELL
                       AIR SEA DIR/SP/G            HT/PER HT/PER/DIR
                 (UTC) (F)     (DEG/KT/KT) (MB)    (FT/S) (FT/S/D)
5E ST. MARYS GA  0321      52                N/A     4/ 8   2/100/11
FRYING PAN BUOY  0350   53 62  340/  4/  6 1028.0F   5/ 7   5/110/ 7
BUOY 41025       NOT AVBL
CAPE LOOKOUT NC  0400   45     350/  4/  5 1026.8F
BUOY 41002       0350   70 72  170/ 16/ 17 1028.9F   8/ 8   5/100/ 8
BUOY 41010       0320   73 75  120/ 12/ 14 1027.6S
ST AUGUSTINE FL  0400   52     360/ 14/ 15 1028.5F


$$


USA.gov is the U.S. government's official web portal to all federal, state and local government web resources and services.